Regional Weather Roundup
Issued by NWS

Home | Current Version | Previous Version | Text Only | Print | Product List | Glossary Off
Versions: 1 2 3 4 5 6 7 8 9 10 11 12 13 14 15 16 17 18 19 20 21 22 23 24 25 26 27 28 29 30 31 32 33 34 35 36 37 38 39 40 41 42 43 44 45 46 47 48 49 50

131
ASUS43 KBIS 220002
RWRND

NORTH DAKOTA REGIONAL WEATHER ROUNDUP
NATIONAL WEATHER SERVICE BISMARCK ND
600 PM CST SAT JAN 21 2017

NOTE: "FAIR" INDICATES FEW OR NO CLOUDS BELOW 12,000 FEET WITH NO
SIGNIFICANT WEATHER AND/OR OBSTRUCTIONS TO VISIBILITY.


NDZ001>003-009>011-017-220100-
NORTHWEST NORTH DAKOTA

CITY           SKY/WX    TMP DP  RH WIND       PRES   REMARKS
WILLISTON      CLOUDY    30  26  85 NW7       29.49R
6HR MIN TEMP:  29; 6HR MAX TEMP:  33;

MINOT          CLOUDY    28  24  85 W6        29.45R
MINOT AFB      CLOUDY    26  24  91 NW7       29.44R WCI  18
$$

NDZ018>021-031>035-040>046-220100-
SOUTHWEST NORTH DAKOTA

CITY           SKY/WX    TMP DP  RH WIND       PRES   REMARKS
BISMARCK       CLOUDY    30  28  92 SW3       29.48R
6HR MIN TEMP:  30; 6HR MAX TEMP:  32;

DICKINSON      FAIR      27  22  81 W15       29.44R WCI  15
GARRISON         N/A     23  22  96 W3        29.45R
6HR MIN TEMP:  23; 6HR MAX TEMP:  26;

HETTINGER ARPT CLEAR     21  18  88 W12       29.49R WCI   9
$$

NDZ004>008-012>016-024-026-027-054-220100-
NORTHEAST NORTH DAKOTA

CITY           SKY/WX    TMP DP  RH WIND       PRES   REMARKS
GRAND FORKS    LGT RAIN  36  33  89 NE3       29.50R FOG
GRND FRKS AFB  CLOUDY    34  34  99 E3        29.50R
DEVILS LAKE    CLOUDY    33  32  96 E3        29.47R FOG
$$

NDZ022-023-025-028>030-036>039-047>053-220100-
SOUTHEAST NORTH DAKOTA

CITY           SKY/WX    TMP DP  RH WIND       PRES   REMARKS
FARGO          CLOUDY    37  34  89 CALM      29.49R
6HR MIN TEMP:  37; 6HR MAX TEMP:  39;

JAMESTOWN      CLOUDY    32  32 100 NW6       29.46R
$$





USA.gov is the U.S. government's official web portal to all federal, state and local government web resources and services.